User: anonymous   Login
Location: Anjeux
(47.8815°N, 6.2076°E)
Time: 02:38:27
(UTC+00:00)
Language:

CAS-4B - Orbit

View from above orbital plane
View from above orbital plane
View from above satellite
View from above satellite

Ground track
Ground track

The orbit data is extracted from the following two-line orbital elements,

1 42759U 17034B   22274.59168852  .00004474  00000-0  26414-3 0  9992
2 42759  43.0170 107.3839 0010433 244.4632 217.0945 15.12594387292423
Epoch (UTC): 01 October 2022 14:12:01
Eccentricity: 0.0010433
inclination: 43.0170°
perigee height: 521 km
apogee height: 535 km
right ascension of ascending node: 107.3839°
argument of perigee: 244.4632°
revolutions per day: 15.12594387
mean anomaly at epoch: 217.0945°
orbit number at epoch: 29242

The dashed part of the orbit path shows where the satellite is in the earth's shadow,  

DLR